Wind_Speed
11 12 12 11 12 12 13 13 14 15 16 16 16 17 17 18 19 20 21 22 22 23 24 24 25 25 25 26 26 26 26 26 27 27 28 27 27 27 28 28 28 28 29 29
9 9 10 10 10 12 13 13 14 15 15 15 16 16 18 19 20 20 21 22 23 23 24 24 24 24 24 24 25 25 26 27 27 27 27 27 26 26 26 26 27 27 27 28
8 8 7 8 9 10 11 11 12 13 13 14 15 16 17 19 20 20 21 21 22 22 23 23 23 23 24 24 25 25 25 26 26 25 25 25 24 25 25 25 26 26 25 26
7 7 7 7 8 8 8 9 10 11 12 14 15 16 17 18 19 19 19 20 21 21 21 22 22 22 22 23 24 24 25 25 24 24 23 23 23 23 22 23 23 23 23 22
5 5 6 5 5 6 7 8 8 10 11 13 14 15 16 17 17 18 19 19 20 20 20 20 21 21 21 21 22 22 23 22 22 22 22 22 22 22 21 21 21 21 21 20
3 3 4 4 4 5 6 8 9 11 11 12 14 15 16 16 16 17 18 18 18 19 18 18 18 17 17 18 19 20 20 20 20 20 20 20 20 19 18 18 18 18 18 18
3 3 3 3 4 5 6 8 9 10 12 13 14 14 15 15 16 16 17 17 16 16 16 16 16 16 16 16 16 16 17 17 17 17 17 17 16 15 14 14 14 14 14 14
1 1 2 3 4 4 6 8 9 10 11 12 13 14 14 14 15 15 16 15 15 14 13 13 13 13 14 14 14 14 14 13 12 13 13 12 12 11 11 10 11 11 11 11
1 1 2 3 4 5 6 7 8 10 11 13 13 14 14 13 14 14 14 13 13 11 11 11 10 10 11 11 11 11 10 10 10 10 9 9 8 8 7 7 7 7 7 7
2 2 3 4 5 6 7 8 9 11 12 13 14 14 14 13 14 14 13 12 11 9 9 8 9 9 9 8 8 7 7 7 7 7 6 6 6 5 5 4 4 4 4 4
3 4 4 5 6 7 8 9 10 12 13 13 14 15 14 14 14 14 13 12 10 9 8 8 8 7 7 7 6 6 6 6 5 4 4 4 3 3 2 2 2 2 2 1
4 4 5 5 6 7 8 10 11 12 13 13 14 14 14 14 14 14 13 12 10 9 8 8 7 6 6 6 6 5 5 4 4 4 4 3 2 2 2 2 1 1 1 1
4 5 5 6 7 8 9 10 11 12 13 13 14 15 15 15 15 14 14 13 11 10 9 8 7 6 6 6 6 5 5 5 4 4 3 3 3 3 4 4 3 3 3 3
5 5 6 7 7 8 9 10 11 12 12 13 14 15 16 16 15 15 15 14 12 11 10 9 8 7 7 7 7 6 6 6 5 5 5 5 5 5 4 5 5 5 5 5
5 6 7 8 8 9 9 10 11 12 12 13 14 15 17 17 16 16 15 15 14 13 13 12 11 10 9 9 9 9 8 8 8 7 7 7 6 6 6 6 6 6 7 7
6 6 7 8 8 9 10 10 11 11 12 12 13 15 16 16 16 16 16 15 15 14 14 14 13 12 11 11 10 10 10 9 9 9 8 8 8 8 8 8 8 8 8 9
6 7 8 8 9 10 10 11 11 11 11 11 13 14 15 15 16 16 16 16 15 15 14 14 14 13 13 12 11 11 11 10 10 9 10 10 10 10 10 10 10 10 10 11
7 7 8 8 9 10 10 11 11 11 11 11 12 13 14 15 15 15 15 15 15 15 15 15 15 14 13 13 12 12 11 11 11 11 11 11 11 12 12 12 12 13 14 14
8 8 8 8 9 9 10 10 10 11 11 12 12 13 13 13 14 14 14 14 14 14 14 15 15 14 14 13 13 13 13 13 13 13 13 13 13 13 13 14 14 14 15 15
8 8 8 9 9 9 9 10 10 10 10 11 11 12 12 12 13 13 14 14 13 13 13 13 14 14 14 13 13 13 13 13 13 13 13 14 14 14 14 13 14 14 14 14
8 8 8 8 9 9 9 9 10 10 10 10 11 11 11 12 12 12 12 12 12 12 12 12 12 12 13 12 12 12 12 12 12 12 12 12 12 12 12 12 13 13 13 13
8 8 8 8 8 9 9 9 10 10 10 10 10 10 10 11 11 11 11 11 11 11 11 11 11 11 11 11 11 11 11 11 11 11 11 11 11 11 11 11 11 11 11 11
7 8 9 9 9 8 8 9 9 10 10 10 9 9 10 10 10 10 10 10 10 10 9 9 9 9 9 9 9 9 9 9 9 9 9 9 9 9 9 9 9 9 9 9
7 8 8 9 9 9 8 8 9 9 10 10 9 9 9 9 9 9 9 9 9 8 8 7 7 7 7 7 7 6 6 5 5 5 5 5 6 6 6 6 6 6 6 6
6 7 8 9 9 9 9 9 9 9 9 9 9 9 8 8 8 8 8 8 7 7 7 6 6 6 5 5 5 4 4 4 3 3 2 2 2 3 3 3 3 3 3 3
5 7 8 9 10 10 10 10 10 10 10 10 9 9 9 9 9 8 8 8 7 7 6 6 5 5 4 4 4 3 3 2 2 1 1 1 2 2 2 2 3 3 4 4
7 7 8 9 10 11 11 11 11 11 11 11 11 10 10 10 10 10 10 9 9 8 8 8 7 6 6 6 5 5 5 5 4 4 4 5 5 5 6 6 6 7 7 7
Wind_Direction
243 242 243 248 248 250 253 256 262 269 272 274 276 278 277 279 281 280 282 283 284 283 281 279 277 276 276 274 275 274 275 277 278 278 278 278 277 277 276 275 275 274 273 271
248 245 244 248 253 255 257 262 265 270 273 276 278 280 280 282 284 284 284 283 283 281 280 279 277 275 276 277 278 279 280 281 280 279 279 279 278 278 278 277 276 276 274 273
249 247 247 249 254 257 261 265 267 271 276 279 283 285 287 288 288 287 285 284 282 281 280 279 278 277 277 278 280 281 282 281 280 280 279 277 277 277 277 276 276 276 276 274
239 241 248 259 260 259 264 272 280 283 285 287 287 289 291 291 290 289 289 288 285 282 281 279 279 279 279 279 279 280 281 281 280 281 280 279 278 277 278 278 277 276 276 274
226 241 251 261 262 264 272 279 289 288 290 292 291 293 295 295 295 295 294 292 289 285 282 282 282 281 281 282 282 282 282 282 283 283 283 282 280 279 279 279 278 276 274 272
226 241 254 266 276 279 284 288 295 301 301 301 302 302 303 303 302 301 299 296 294 290 288 286 287 288 285 285 285 283 283 284 285 285 285 284 283 281 279 279 277 275 274 272
216 238 267 285 291 297 299 304 306 309 313 315 315 314 313 310 306 305 303 301 299 296 293 291 292 293 289 285 287 288 290 289 286 286 286 284 283 282 280 278 276 275 274 273
171 251 301 306 308 312 318 319 318 322 324 324 323 322 321 318 315 313 312 310 308 305 300 297 296 295 293 294 295 295 295 293 290 289 288 285 284 282 282 279 275 272 273 273
90 33 356 345 344 341 340 339 339 338 336 335 335 334 331 329 328 326 324 319 315 310 307 305 302 303 300 300 301 301 301 298 294 293 292 292 287 282 282 280 277 268 267 268
57 45 30 17 11 7 3 358 353 350 349 348 347 345 343 341 339 338 338 336 330 325 320 316 314 315 315 318 316 315 315 310 308 307 305 303 299 291 287 285 279 271 269 272
66 60 42 30 23 17 11 6 3 1 360 1 1 359 358 354 352 352 350 348 344 337 332 331 333 333 332 331 329 332 334 331 330 333 334 329 333 331 319 301 293 277 284 291
70 58 44 36 26 18 13 12 10 9 10 11 10 10 9 7 6 6 4 2 359 355 352 351 349 349 349 353 354 351 350 351 357 4 360 3 19 39 60 79 64 59 71 109
64 50 44 34 25 18 14 13 13 14 16 18 17 16 16 16 16 16 16 16 15 14 13 11 9 10 9 9 12 15 13 14 19 22 35 49 66 80 81 84 84 85 85 103
55 44 37 30 25 20 18 17 16 19 21 23 23 23 23 23 23 25 27 26 27 28 28 28 29 32 35 35 38 42 42 43 45 52 66 75 81 85 90 90 91 96 99 104
50 42 32 27 27 26 24 23 22 23 25 26 26 27 27 27 29 30 31 33 35 38 40 43 46 50 53 53 54 55 59 63 65 67 69 72 75 82 90 94 94 96 101 108
44 38 34 32 31 29 29 28 26 27 30 30 29 29 30 31 33 35 37 39 41 45 47 49 52 54 56 58 60 62 66 67 68 70 72 74 76 83 90 93 94 95 102 108
41 37 36 35 32 31 32 32 31 30 32 31 30 31 31 33 36 38 40 42 45 47 51 53 55 57 59 62 62 64 66 69 72 74 77 78 80 85 91 94 96 96 101 106
41 38 37 35 33 31 30 31 32 32 32 33 33 32 32 33 36 39 41 45 48 50 53 54 56 57 60 62 64 65 69 70 72 76 80 83 86 89 92 93 96 97 100 103
42 40 37 34 31 30 28 28 30 31 31 32 32 31 32 34 38 41 43 46 49 52 54 54 55 57 60 62 64 68 72 73 74 79 85 89 92 94 95 96 98 101 102 105
40 38 35 32 29 29 29 29 29 30 30 31 32 33 35 38 39 41 43 45 48 51 53 54 53 55 58 61 64 69 72 74 77 81 86 89 91 93 95 96 98 102 105 106
37 34 31 28 27 28 29 29 29 29 30 31 32 33 35 37 37 38 40 43 45 48 50 51 51 53 55 59 66 70 72 74 77 82 85 87 89 90 93 97 101 104 106 108
34 30 26 23 23 24 25 27 27 26 26 27 27 28 31 33 34 35 38 40 43 45 47 50 52 54 55 58 66 71 74 77 79 82 85 88 90 90 92 96 100 103 107 110
29 27 24 22 21 20 20 21 21 21 21 21 22 23 25 27 29 31 33 35 37 40 42 46 49 52 54 58 63 68 72 77 80 83 86 89 91 93 95 98 102 105 109 112
21 20 18 17 17 15 13 11 11 12 12 14 14 15 16 17 19 23 25 27 28 30 32 36 39 43 48 52 58 60 61 65 72 81 89 92 94 98 101 106 111 115 118 122
5 7 6 5 5 4 1 358 357 356 355 356 358 358 360 0 1 2 5 9 11 13 14 18 22 25 29 33 37 43 45 46 51 60 79 95 105 110 115 126 136 142 147 156
335 345 348 350 350 349 347 344 342 341 339 337 336 336 337 338 339 340 340 342 344 345 346 347 348 351 355 356 356 355 354 348 345 342 311 262 246 237 231 230 229 228 228 230
307 318 326 332 336 336 336 334 331 330 331 330 326 322 320 319 320 322 323 322 322 321 318 316 314 312 310 310 310 307 305 299 289 283 279 273 267 262 258 256 257 256 256 257
Height
5796 5797 5798 5798 5799 5799 5800 5800 5801 5800 5799 5797 5796 5795 5794 5793 5791 5789 5787 5785 5782 5780 5778 5775 5774 5772 5770 5769 5768 5766 5765 5763 5762 5761 5760 5759 5758 5757 5756 5755 5754 5753 5753 5752
5794 5794 5794 5795 5795 5796 5796 5796 5796 5795 5794 5793 5791 5790 5788 5787 5785 5783 5781 5778 5776 5773 5771 5769 5767 5765 5763 5762 5761 5759 5758 5756 5755 5754 5753 5751 5750 5750 5749 5748 5747 5746 5745 5744
5791 5792 5792 5793 5793 5792 5792 5792 5792 5791 5791 5788 5787 5785 5783 5781 5779 5777 5774 5771 5769 5767 5764 5762 5760 5758 5757 5755 5754 5752 5751 5749 5748 5747 5745 5745 5743 5743 5742 5741 5740 5739 5738 5737
5789 5790 5790 5792 5790 5790 5790 5789 5788 5787 5786 5784 5783 5781 5778 5776 5773 5771 5768 5765 5763 5760 5758 5756 5754 5752 5750 5748 5747 5745 5744 5742 5741 5740 5739 5738 5737 5736 5735 5734 5733 5732 5731 5731
5788 5788 5788 5789 5788 5787 5787 5786 5785 5784 5782 5780 5778 5776 5773 5771 5768 5765 5762 5760 5757 5754 5752 5750 5747 5745 5743 5742 5740 5739 5738 5736 5735 5733 5732 5731 5730 5729 5729 5728 5727 5726 5725 5725
5787 5787 5787 5788 5786 5785 5786 5784 5783 5781 5779 5777 5775 5773 5770 5766 5763 5760 5757 5754 5751 5749 5747 5744 5742 5740 5738 5736 5735 5733 5732 5730 5729 5728 5726 5725 5724 5723 5723 5722 5721 5721 5720 5719
5786 5786 5786 5786 5785 5785 5785 5783 5780 5778 5776 5773 5771 5768 5765 5761 5758 5755 5752 5749 5746 5744 5742 5739 5737 5735 5733 5731 5730 5728 5727 5725 5724 5723 5721 5720 5719 5718 5718 5717 5717 5716 5715 5715
5785 5785 5787 5784 5783 5783 5782 5779 5778 5775 5773 5770 5767 5764 5760 5757 5754 5751 5748 5745 5742 5739 5737 5735 5733 5731 5729 5728 5726 5724 5723 5721 5720 5719 5717 5716 5715 5715 5714 5713 5713 5712 5712 5712
5785 5786 5784 5783 5782 5781 5779 5778 5776 5773 5770 5767 5764 5761 5757 5754 5750 5747 5744 5741 5738 5736 5734 5731 5730 5728 5726 5725 5723 5721 5720 5718 5717 5715 5714 5713 5712 5711 5711 5710 5710 5710 5709 5709
5784 5783 5783 5782 5781 5779 5778 5776 5774 5771 5768 5765 5762 5758 5755 5751 5747 5744 5741 5738 5735 5733 5731 5729 5727 5725 5724 5722 5720 5719 5717 5716 5715 5713 5712 5711 5710 5710 5709 5709 5708 5708 5708 5707
5783 5783 5782 5781 5780 5779 5777 5775 5773 5770 5767 5764 5760 5757 5753 5749 5746 5742 5739 5736 5733 5731 5729 5727 5726 5724 5722 5720 5719 5717 5716 5714 5713 5712 5711 5710 5709 5709 5708 5708 5708 5708 5707 5707
5783 5783 5782 5781 5780 5778 5776 5774 5772 5769 5766 5763 5759 5756 5752 5749 5745 5741 5738 5735 5732 5730 5728 5726 5724 5723 5721 5719 5718 5717 5715 5714 5713 5712 5711 5710 5709 5709 5709 5708 5708 5708 5708 5707
5783 5782 5781 5780 5779 5778 5776 5774 5771 5769 5766 5763 5759 5756 5752 5749 5745 5742 5739 5735 5733 5730 5728 5726 5724 5722 5721 5719 5718 5716 5715 5714 5713 5712 5711 5711 5710 5710 5710 5710 5709 5709 5708 5708
5783 5782 5781 5780 5779 5777 5775 5773 5771 5768 5766 5763 5760 5756 5753 5750 5746 5743 5740 5737 5734 5731 5729 5726 5724 5723 5721 5720 5718 5717 5716 5715 5714 5713 5713 5712 5712 5711 5711 5711 5710 5710 5710 5710
5783 5782 5781 5780 5778 5777 5775 5773 5771 5768 5766 5764 5761 5758 5755 5751 5748 5745 5741 5738 5735 5733 5730 5728 5726 5724 5723 5721 5720 5719 5718 5717 5716 5715 5715 5714 5713 5713 5713 5712 5712 5712 5712 5712
5784 5783 5782 5780 5779 5777 5775 5773 5771 5769 5767 5765 5762 5759 5756 5753 5750 5746 5743 5740 5738 5735 5733 5731 5729 5727 5725 5724 5723 5721 5720 5720 5719 5718 5717 5716 5716 5715 5715 5715 5715 5715 5715 5715
5784 5783 5782 5781 5779 5778 5776 5774 5772 5770 5768 5766 5763 5761 5758 5755 5752 5749 5746 5743 5741 5738 5736 5734 5732 5730 5729 5727 5726 5725 5724 5723 5722 5721 5720 5720 5719 5718 5718 5718 5718 5718 5718 5718
5785 5784 5783 5782 5780 5778 5777 5775 5773 5771 5769 5767 5765 5763 5760 5757 5755 5752 5749 5747 5744 5742 5740 5738 5736 5734 5732 5731 5729 5728 5727 5726 5725 5724 5724 5723 5722 5722 5722 5722 5721 5722 5722 5722
5786 5785 5784 5782 5781 5779 5778 5776 5774 5773 5771 5768 5766 5764 5762 5759 5757 5755 5752 5750 5748 5746 5744 5742 5740 5738 5736 5735 5733 5732 5731 5730 5729 5728 5728 5727 5727 5727 5726 5726 5726 5726 5727 5727
5787 5786 5785 5783 5782 5780 5779 5777 5775 5774 5772 5770 5768 5766 5764 5762 5760 5757 5755 5753 5751 5749 5748 5746 5744 5742 5741 5739 5737 5736 5735 5734 5734 5733 5732 5732 5732 5731 5731 5731 5731 5731 5732 5732
5788 5787 5785 5784 5783 5781 5780 5778 5777 5775 5773 5772 5770 5768 5766 5764 5762 5760 5758 5756 5755 5753 5751 5749 5748 5746 5745 5743 5742 5740 5740 5739 5738 5738 5737 5737 5736 5736 5736 5736 5736 5736 5737 5737
5788 5787 5786 5785 5783 5782 5780 5779 5778 5776 5775 5773 5771 5770 5768 5766 5764 5762 5761 5759 5757 5756 5754 5753 5751 5750 5748 5747 5746 5745 5744 5743 5742 5742 5742 5741 5741 5741 5741 5741 5741 5741 5741 5742
5789 5788 5787 5785 5784 5783 5781 5780 5779 5777 5776 5774 5772 5771 5769 5768 5766 5765 5763 5762 5760 5758 5757 5756 5754 5753 5752 5750 5749 5748 5748 5747 5746 5746 5745 5745 5745 5745 5745 5745 5745 5745 5745 5745
5789 5788 5787 5786 5784 5783 5782 5781 5779 5778 5776 5775 5773 5772 5770 5769 5768 5766 5765 5763 5762 5760 5759 5758 5757 5756 5754 5753 5752 5751 5751 5750 5749 5749 5748 5748 5748 5748 5748 5747 5748 5748 5748 5748
5789 5788 5787 5786 5784 5783 5782 5781 5779 5778 5777 5775 5774 5772 5771 5770 5768 5767 5766 5764 5763 5762 5761 5759 5758 5757 5756 5755 5754 5753 5752 5752 5751 5751 5750 5750 5750 5750 5750 5750 5750 5750 5750 5750
5788 5787 5786 5785 5784 5783 5781 5780 5779 5777 5776 5775 5773 5772 5771 5769 5768 5767 5766 5764 5763 5762 5761 5760 5759 5758 5757 5756 5755 5754 5753 5753 5752 5751 5751 5751 5751 5751 5750 5750 5750 5750 5750 5750
5786 5785 5785 5784 5783 5781 5780 5778 5777 5776 5775 5773 5772 5771 5769 5768 5767 5766 5765 5763 5762 5761 5760 5759 5758 5757 5756 5755 5755 5754 5753 5752 5752 5751 5751 5750 5750 5750 5750 5749 5749 5749 5749 5749